Погода в Шидрове

Россия / Архангельская область     62°47′17″N   42°52′39″E
темп.,
°C
ветер,
м/с
пор.,
м/с
влажн.,
%
обл.,
%
осадки,
мм/ч
давл.,
гПа
погр.,
м
28 февраля, вс
вс2800:00−14ю239791 0.3 101188
03:00−15ю129788 0.4 101220
06:00−13юв119794 0.2 101120
09:00−12ю119690 0.3 101231
12:00−7ююз129194 0.1 1013236
15:00−4юз129297 0.1 1014356
18:00−4юз1295100 0.1 101439
21:00−4ююз2496100 0.1 1015130
1 марта, пн
пн100:00−4юз3695100 0.0 1014264
03:00−6ююз3109399 0.0 1012299
06:00−4юз4993100 0.2 1009429
09:00−2юз41196100 1.0 1006593
12:000юз51098100 1.5 1003636
15:00+1зюз411100100 1.9 1001539
18:00+1з41198100 1.4 998593
21:00+1зсз3998100 2.8 997657
2 марта, вт
вт200:000з3109599 0.2 996448
03:00−2з399496 0.3 996399
06:00−3з31095100 0.0 995455
09:00−1з4995100 0.4 995838
12:00−1з51094100 0.8 994867
15:00−1сз71290100 1.5 9951137
18:00−3сз71488100 0.4 9981172
21:00−5ссз5148599 0.4 1001785
3 марта, ср
ср300:00−7сз4119561 0.0 1004384
03:00−6сз4109479 0.1 1006458
06:00−7сз4109396 0.1 1006552
09:00−8зсз499298 0.2 1006477
12:00−6зсз4991100 0.1 1006605
15:00−5зсз4786100 0.1 1005839
18:00−8зюз239398 0.0 100332
21:00−7ююз269699 0.1 1001192
4 марта, чт
чт400:00−6ю3896100 0.3 995315
03:00−5ю41195100 1.4 989592
06:00−4ююв4996100 1.4 983492
09:00−3вюв1397100 4.2 980175
12:00−2зсз3692100 1.9 980606
15:00−4с6994100 3.1 983767
18:00−7ссз61292100 1.2 986783
21:00−8сз51191100 1.5 990788